To NAV CANADA Home Page Login to a new session Search on AWWS site Feedback and Comments Disclaimer Vers la page française équivalente Tips FAQ What's new on the site To the Forecasts and Observations / NOTAM section To "File a Flight Plan" website Publications and other links Update of the User's profile FIC Telephone Numbers My Weather Data Folder Route Weather Data Regional Weather Data Local Weather Data To the Forecasts and Observations / NOTAM section
Request Generated 02/10/2016 at 08:38:34 UTC . Weather information available at that time is displayed.

METAR/TAF

CALGARY/SPRINGBANK/AB    (show WxCam)

METAR CYBW 100800Z AUTO 33011KT 9SM CLR 01/M04 A2999 RMK SLP181=
METAR CYBW 100700Z AUTO 34010KT 9SM CLR 01/M05 A2999 RMK SLP187=
METAR CYBW 100600Z AUTO 32013KT 9SM CLR 05/M05 A2998 RMK SLP179=

*** REMARK        : Forecast period has ended; this was the last TAF issued
*** REMARQUE : La période de prévision est échue; ceci était le dernier TAF qui a été émis
TAF CYBW 092344Z 1000/1005 30005KT P6SM SKC
RMK FCST BASED ON AUTO OBS. NXT FCST WILL BE ISSUED AT 101245Z=
Your time UTC time
Weather data provided by Environment Canada and NAV CANADA